Location: Nebula Knoll Observatory
(43.6666°N, 71.0000°W)
Time: 08:13:13
(UTC-04:00)

Daily predictions for brighter satellites

Satellite Brightness Start Highest point End
(mag) Time Altitude Azimuth Time Altitude Azimuth Time Altitude Azimuth
Cosmos 1570 Rocket 4.0 19:47:24 10° SSW 19:52:42 82° ESE 19:57:59 10° NNE
Cosmos 1602 Rocket 4.1 19:52:26 10° N 19:56:40 40° ENE 20:00:49 10° SSE
Cosmos 2123 Rocket 4.0 19:50:44 10° N 19:56:55 71° E 20:03:04 10° SSE
EO 1 Delta rocket 4.3 19:53:01 10° NNE 19:57:35 47° E 20:02:50 10° S
Cosmos 1980 Rocket 3.5 19:56:42 10° SE 20:00:26 18° E 20:04:10 10° ENE
Lacrosse 5 2.4 19:55:47 10° NW 20:00:41 48° NE 20:05:35 10° ESE
Cosmos 2369 3.7 19:55:12 10° SSW 20:00:50 72° ESE 20:06:32 10° NNE
Cosmos 220 Rocket 4.1 19:56:53 10° NNW 20:01:03 54° ENE 20:05:10 10° SE
Resurs 1-3 4.2 20:01:39 10° S 20:06:00 63° W 20:10:21 10° NNW
H-2A R/B 2.8 20:02:36 10° SSE 20:06:26 62° ENE 20:10:21 10° N
Cosmos 2150 Rocket 4.4 20:05:53 10° N 20:10:50 45° ENE 20:15:47 10° SE
ERS-1 Rocket 3.7 20:08:46 10° SE 20:13:15 34° ENE 20:17:45 10° N
Cosmos 1975 3.0 20:10:13 10° S 20:14:11 52° E 20:18:12 10° NNE
FENGYUN 3A 3.7 20:12:48 10° SSE 20:18:10 87° WSW 20:23:33 10° NNW
Lacrosse 5 rocket 2.0 20:14:56 10° WNW 20:18:30 44° SW 20:21:58 10° SSE
BREEZE-M DEB (TANK) 4.0 20:17:23 10° WNW 20:20:27 50° NNE 20:28:34 11° E
Cosmos 1656 3.7 20:15:01 10° S 20:20:30 59° ESE 20:25:58 10° NNE
Cosmos 1934 Rocket 4.4 20:16:29 10° SSW 20:22:36 68° W 20:28:51 10° N
Cosmos 2263 Rocket 4.3 20:22:13 10° NNE 20:23:54 11° NE 20:25:34 10° ENE
Helios 1B rocket 4.5 20:20:29 10° N 20:24:12 33° WNW 20:27:53 10° SW
Cosmos 1898 Rocket 3.5 20:21:54 10° NNW 20:27:12 66° ENE 20:32:15 11° SSE
DELTA 2 R/B (1) 4.3 20:22:57 10° W 20:28:11 42° SSW 20:32:20 15° SE
Cosmos 2227 Rocket 3.0 20:23:00 10° NW 20:28:30 52° WSW 20:33:57 10° S
CZ-2D R/B 3.7 20:24:54 10° S 20:28:44 64° W 20:32:38 10° NNW
Cosmos 1153 Rocket 4.4 20:22:58 10° S 20:29:05 68° E 20:35:12 10° NNE
Resurs 01 Rocket 3.8 20:26:41 10° SSW 20:30:26 27° W 20:34:15 10° NW
Cosmos 2322 Rocket 4.0 20:35:12 12° E 20:35:12 12° E 20:36:20 10° ENE
Cosmos 1500 3.2 20:32:26 10° S 20:36:08 58° E 20:39:52 10° NNE
CZ-4 DEB 2.9 20:34:36 19° SE 20:36:34 51° ENE 20:39:40 10° N
Meteor 1-12 Rocket 4.4 20:31:01 10° S 20:36:46 86° W 20:42:40 10° N
OAO 2 Rocket 4.3 20:37:01 10° WSW 20:41:24 31° S 20:43:53 20° SE
Cosmos 468 Rocket 3.9 20:36:52 10° S 20:41:55 65° ESE 20:47:01 10° NNE
YAOGAN 6 4.3 20:41:44 17° E 20:42:18 18° ENE 20:44:52 10° NNE
Cosmos 2297 Rocket 2.9 20:38:06 10° NNW 20:43:37 55° WSW 20:49:06 10° S
Cosmos 1340 3.4 20:40:40 10° N 20:44:09 33° ENE 20:45:27 26° ESE
Cosmos 1802 Rocket 4.3 20:39:18 10° SSE 20:45:21 47° E 20:51:28 10° NNE
Cosmos 841 Rocket 4.2 20:43:38 11° SSE 20:48:00 31° E 20:52:35 10° NE
Cosmos 972 Rocket 4.5 20:42:21 10° NNW 20:48:19 74° ENE 20:53:58 15° SSE
ALOS 3.6 20:44:26 10° SSW 20:48:49 39° W 20:53:13 10° NNW
Cosmos 1939 Rocket 3.0 20:49:05 22° SSE 20:51:37 61° ENE 20:55:45 10° N
Cosmos 1814 Rocket 3.9 20:48:12 10° S 20:53:31 70° ESE 20:58:48 10° NNE
Cosmos 1726 Rocket 4.2 20:53:14 28° SE 20:54:31 33° E 20:58:28 10° NNE
Cosmos 2016 Rocket 4.2 20:50:26 13° SSE 20:55:41 46° E 21:01:33 10° NNE
USA 186 3.6 20:53:09 10° SSW 20:55:48 27° W 20:58:19 10° NW
Cosmos 1515 4.5 20:55:01 10° NNW 20:58:46 52° W 21:02:28 10° S
ASTEX 1 3.9 20:59:50 10° NNE 21:04:33 39° E 21:06:04 31° SE
Cosmos 1825 Rocket 3.4 21:03:07 10° N 21:07:34 76° E 21:09:41 30° SSE
Cosmos 2173 Rocket 3.9 21:01:29 10° S 21:07:50 78° E 21:14:11 10° N
Cosmos 1743 2.7 21:13:07 19° S 21:15:51 84° W 21:19:48 10° N
RESURS DK-1 2.9 21:13:48 10° NW 21:17:52 54° WSW 21:19:38 30° S
Cosmos 1953 Rocket 3.5 21:14:02 10° N 21:18:31 73° E 21:19:56 42° SSE
Cosmos 967 Rocket 4.4 21:12:23 10° NNW 21:18:47 85° ENE 21:21:49 33° SE
Tiangong 1 2.0 21:16:19 10° W 21:18:49 38° SW 21:18:49 38° SW
BREEZE-M DEB (TANK) 3.7 21:05:36 10° WSW 21:19:47 73° SSE 21:22:26 28° E
Cosmos 1697 Rocket 3.1 21:14:42 10° SW 21:20:19 64° WNW 21:25:56 10° NNE
H-2A R/B 1.8 21:20:46 47° SSE 21:21:54 83° ENE 21:26:04 10° NNW
Cosmos 2100 Rocket 4.2 21:16:52 10° SSW 21:23:09 75° W 21:29:23 10° N
Nimbus 7 Rocket 4.4 21:18:57 10° NNE 21:25:02 70° ESE 21:30:16 14° S
Envisat 3.2 21:23:26 24° S 21:26:32 68° WSW 21:31:37 10° NNW
Cosmos 1937 Rocket 4.2 21:23:44 10° NNW 21:28:51 51° WSW 21:32:03 22° S
Cosmos 2228 3.8 21:30:30 36° ENE 21:30:30 36° ENE 21:33:39 10° NNE
SL-16 R/B 2.9 21:31:23 34° E 21:31:23 34° E 21:35:42 10° NE
Tsikada Rocket 4.1 21:25:51 10° N 21:32:14 62° E 21:34:27 40° SE
NOAA 11 4.5 21:31:33 42° ESE 21:32:46 50° ENE 21:38:01 10° N
Cosmos 2061 Rocket 4.3 21:27:03 10° SSW 21:33:19 69° W 21:39:35 10° N
ARGOS 3.4 21:34:52 45° ESE 21:35:54 52° ENE 21:41:08 10° N
Cosmos 1758 Rocket 3.5 21:32:44 10° N 21:37:07 83° W 21:37:54 59° S
SL-19 R/B 4.2 21:32:56 10° NNE 21:38:14 51° E 21:38:37 50° ESE
CZ-4B R/B 4.2 21:36:51 10° NNE 21:40:07 33° ENE 21:40:07 33° ENE
deb Chang Zheng 4 3.8 21:37:56 10° N 21:42:24 73° WNW 21:44:26 32° SSW
Lacrosse 5 2.9 21:38:58 10° WNW 21:43:33 35° SW 21:44:53 30° SSW
Cosmos 1980 Rocket 2.5 21:38:10 10° SW 21:43:48 68° WNW 21:49:30 10° NNE
Cosmos 2360 Rocket 4.4 21:48:24 10° ENE 21:48:24 10° ENE 21:48:32 10° ENE
Cosmos 1842 3.3 21:42:16 10° N 21:46:02 77° WNW 21:46:02 77° WNW
H-2A R/B 2.9 21:46:51 33° ENE 21:46:51 33° ENE 21:51:01 10° N
MetOp-B 4.1 21:46:49 46° S 21:48:26 79° WSW 21:53:49 10° NNW
SPOT 5 3.2 21:49:22 43° SSW 21:50:49 63° WSW 21:55:36 10° NNW
Cosmos 1816 Rocket 4.5 21:45:10 10° N 21:51:33 68° E 21:52:58 53° SE
Meteor 2-17 Rocket 4.4 21:52:21 54° ESE 21:52:53 55° E 21:58:46 10° NNE
Cosmos 1725 Rocket 3.9 21:53:16 37° S 21:55:58 89° ESE 22:02:16 10° N
BREEZE-M TANK 3.6 21:51:30 10° WNW 21:58:04 37° SW 21:58:04 37° SW
Cosmos 836 Rocket 4.4 21:56:49 45° SSW 21:58:30 87° WNW 22:03:51 10° NNE
Landsat 7 4.4 22:00:07 46° NE 22:00:07 46° NE 22:04:09 10° N
Cosmos 1666 3.5 22:00:57 50° WNW 22:00:57 50° WNW 22:04:20 10° N
Cosmos 2058 Rocket 3.6 22:03:45 49° WSW 22:04:33 57° W 22:09:01 10° N
Cosmos 2098 Rocket 4.2 22:00:54 22° SSW 22:05:25 69° W 22:11:03 10° N
SPOT 1/Viking Rocket 3.5 22:05:15 71° SSW 22:05:48 81° WSW 22:11:03 10° NNW
Cosmos 1763 Rocket 4.4 22:01:20 10° SW 22:06:13 46° WNW 22:11:07 10° N
Cosmos 2263 Rocket 2.3 22:03:38 10° NNW 22:09:08 56° ENE 22:09:09 56° ENE
Meteor 2-5 Rocket 3.9 22:07:24 10° N 22:13:10 59° ENE 22:13:10 59° ENE
Terra 2.7 22:15:54 41° NNE 22:15:54 41° NNE 22:19:27 10° N
Cosmos 1125 Rocket 3.6 22:10:20 10° NNW 22:15:30 65° WSW 22:15:41 64° WSW
YAOGAN 6 4.3 22:16:13 31° WNW 22:16:13 31° WNW 22:19:02 10° NNW
Cosmos 2322 Rocket 2.0 22:16:55 82° SSW 22:17:11 89° WNW 22:22:52 10° NNE
Cosmos 2233 Rocket 3.8 22:19:10 73° S 22:19:49 85° E 22:26:06 10° N
USA 215 3.4 22:18:44 51° E 22:20:12 64° NNE 22:26:40 10° NW
BREEZE-M DEB (TANK) 3.6 22:07:08 10° WNW 22:24:58 89° SSW 22:25:51 69° ESE
Meteor 1-24 Rocket 4.4 22:22:46 10° N 22:27:57 45° NE 22:27:57 45° NE
Cosmos 540 Rocket 4.0 22:42:33 55° NNW 22:42:33 55° NNW 22:46:50 10° NNE
Cosmos 2278 Rocket 4.1 22:54:35 10° N 22:58:31 19° NE 22:58:31 19° NE
Cosmos 1464 Rocket 4.2 23:06:59 67° N 23:06:59 67° N 23:12:25 10° N
SL-16 R/B 3.5 23:13:11 31° W 23:14:38 36° NW 23:19:52 10° N
Cosmos 1844 Rocket 3.8 23:15:41 10° NNW 23:19:29 38° NNE 23:19:29 38° NNE
H-2A R/B 3.8 23:27:30 25° WNW 23:27:30 25° WNW 23:30:23 10° NW
Cosmos 2360 Rocket 3.3 23:30:08 40° N 23:30:08 40° N 23:33:48 10° NNE
Cosmos 2219 Rocket 4.2 23:51:39 19° NE 23:51:39 19° NE 23:53:16 10° NE
Cosmos 2263 Rocket 4.2 23:48:28 10° NW 23:50:51 19° WNW 23:50:51 19° WNW
Terra 4.3 23:54:47 15° WNW 23:54:47 15° WNW 23:56:16 10° NW
